FLTSATCOM 7 (USA 20)

Last updated on March 30, 2019, 3:13 a.m. UTC

1 17181U 86096A   19088.79715278  .00000015  00000-0  00000+0 0  9994
2 17181  14.5946 359.8657 0034697 283.3056 254.9993  0.98666019125833
UTC
Height (km)
Latitude
Longitude
Inclination
Orbital Period
UTC large
Height (km)
Speed (km/s)
/
Latitude / Longitude
Inclination (degrees)
Orbital Period (minutes)
Azimuth
Elevation
Range (km)
Doppler Factor
iOS Compass Heading
iOS Angle

Next 30 passes for location: Hong Kong

Rise time Rise Azimuth (degrees) Set time Set Azimuth (degrees) Duration Max altitude (degrees)

No matching passes for this satellites